This demonstration page uses our WeatherBlox Daily Observations layout. Learn more.

Left ArrowRight Arrow

38.20091, -84.87328

Hourly Observations for August 14, 2022

Temp ( °F °C ) Dew Point ( °F °C ) Humidity (%) Winds ( mph kmh ) Pressure ( in mb ) Visibility ( mi km ) Precip ( " mm )
12:54 am 00:54 Clear 68 20 62 16.7 81 81 SSE 3 6 30.04 1017 10 16 0.00 0.00
1:54 am 01:54 Clear 67 19.4 62 16.7 84 84 S 3 6 30.03 1017 10 16 0.00 0.00
2:54 am 02:54 Clear 69 20.6 60 15.6 73 73 S 3 6 30.01 1016 10 16 0.00 0.00
3:54 am 03:54 Clear 68 20 60 15.6 76 76 S 5 7 29.99 1016 10 16 0.00 0.00
4:54 am 04:54 Clear 68 20 59 15 73 73 S 5 7 29.98 1015 10 16 0.00 0.00
5:54 am 05:54 Mostly Clear 67 19.4 60 15.6 79 79 S 3 6 29.98 1015 10 16 0.00 0.00
6:54 am 06:54 Partly Cloudy 67 19.4 60 15.6 79 79 SSE 5 7 29.98 1015 10 16 0.00 0.00
7:54 am 07:54 Mostly Sunny 69 20.6 61 16.1 75 75 S 8 13 29.97 1015 10 16 0.00 0.00
8:54 am 08:54 Mostly Cloudy 71 21.7 62 16.7 73 73 S 6 9 29.98 1015 10 16 0.00 0.00
9:54 am 09:54 Mostly Cloudy 71 21.7 63 17.2 76 76 S 5 7 29.99 1016 10 16 0.01 0.13
10:54 am 10:54 Mostly Sunny 74 23.3 63 17.2 69 69 S 5 7 29.99 1016 10 16 0.00 0.00
11:54 am 11:54 Mostly Cloudy 77 25 64 17.8 64 64 SW 12 19 29.98 1015 10 16 0.00 0.00
12:54 pm 12:54 Mostly Cloudy 77 25 64 17.8 64 64 SSW 17 28 29.95 1014 10 16 0.00 0.00
1:54 pm 13:54 Mostly Cloudy 80 26.7 59 15 49 49 S 14 22 29.93 1014 10 16 0.00 0.00
2:54 pm 14:54 Mostly Cloudy 81 27.2 60 15.6 49 49 SSW 13 20 29.92 1013 10 16 0.00 0.00
3:54 pm 15:54 Mostly Cloudy 81 27.2 65 18.3 58 58 SSW 14 22 29.89 1012 10 16 0.01 0.13
4:54 pm 16:54 Cloudy 82 27.8 65 18.3 56 56 SW 10 17 29.88 1012 10 16 0.00 0.00
5:54 pm 17:54 Cloudy 81 27.2 68 20 65 65 SW 8 13 29.88 1012 10 16 0.01 0.13
6:54 pm 18:54 Cloudy 80 26.7 68 20 67 67 WSW 3 6 29.89 1012 10 16 0.00 0.00
7:54 pm 19:54 Mostly Sunny 79 26.1 67 19.4 67 67 SW 7 11 29.88 1012 10 16 0.00 0.00
8:54 pm 20:54 Mostly Cloudy 76 24.4 66 18.9 71 71 SW 6 9 29.89 1012 10 16 0.00 0.00
9:54 pm 21:54 Mostly Cloudy 75 23.9 67 19.4 76 76 WSW 3 6 29.89 1012 10 16 0.00 0.00
10:54 pm 22:54 Mostly Clear 73 22.8 66 18.9 79 79 SW 6 9 29.89 1012 10 16 0.00 0.00
11:54 pm 23:54 Cloudy 72 22.2 67 19.4 84 84 SW 6 9 29.89 1012 10 16 0.00 0.00

Powered by AerisWeather